Location: Unspecified
(35.7250°N, 0.0000°E)
Time: 15:45:20
(UTC+00:00)

Tiros 1 - Pass Details

Date: 01 July 2019
Orbit: 630 x 664 km, 48.4° (Epoch: 21 August)

Event Time Altitude Azimuth Distance (km) Brightness Sun altitude
Rises 01:36:32 0° 308° (NW) 2,941 10.7 -27.2°
Reaches altitude 10° 01:38:55 10° 313° (NW) 2,025 9.9 -27.0°
Maximum altitude 01:43:31 57° 32° (NNE) 745 7.6 -26.6°
Drops below altitude 10° 01:48:03 10° 112° (ESE) 2,004 9.7 -26.2°
Sets 01:50:23 0° 116° (ESE) 2,907 10.5 -26.0°
